Location: Springfield
(37.2150°N, 93.2980°W)
Time: 07:37:09
(UTC-05:00)

Cosmos 1805 Rocket - Pass Details

Date: 19 April 2018
Orbit: 605 x 631 km, 82.5° (Epoch: 24 May)

Event Time Altitude Azimuth Distance (km) Brightness Sun altitude
Rises 20:49:23 0° 351° (N) 2,880 7.5 -11.6°
Reaches altitude 10° 20:51:36 10° 351° (N) 1,968 6.6 -12.0°
Maximum altitude 20:55:57 81° 265° (W) 619 3.6 -12.8°
Drops below altitude 10° 21:00:15 10° 178° (S) 1,945 5.8 -13.5°
Enters shadow 21:02:09 - 177° (S) 2,721 6.6 -13.9°
